Weather History for Ahmedabad, India

Change the Weather History Date:

Thursday, March 28, 2013

  Actual Average Record
Temperature  
Mean Temperature 84 °F -  
Max Temperature 95 °F 100 °F 105 °F (1998)
Min Temperature 73 °F 74 °F 64 °F (2006)
Cooling Degree Days 19    
Growing Degree Days 34 (Base 50)    
Moisture  
Dew Point 56 °F    
Average Humidity 40    
Maximum Humidity 65    
Minimum Humidity 15    
Precipitation  
Precipitation 0.00 in 0.00 in - ()
Sea Level Pressure  
Sea Level Pressure 29.81 in    
Wind  
Wind Speed 4 mph ()    
Max Wind Speed 9 mph    
Max Gust Speed -    
Visibility 2.8 miles    
Events      
Averages and records for this station are not official NWS values.
T = Trace of Precipitation, MM = Missing Value Source: Averaged Metar Reports

Daily Weather History Graph

Daily Weather History Graph

Search for Another Location

Airport:

Trip Planner

Search our weather history database for the weather conditions in past years. The results will help you decide how hot, cold, wet, or windy it might be!

Date:

Astronomy

Mar. 28, 2013 Rise Set
Actual Time 6:35 AM IST 6:53 PM IST
Civil Twilight 6:13 AM IST 7:16 PM IST
Nautical Twilight 5:47 AM IST 7:42 PM IST
Astronomical Twilight 5:20 AM IST 8:08 PM IST
Moon 8:00 PM IST (3/28) 6:56 AM IST (3/28)
Length of Visible Light 13h 02m
Length of Day
12h 17m
Full, 99% of the Moon is Illuminated
Mar 28
Full
Apr 3
Last Quarter
Apr 10
New
Apr 18
First Quarter
Apr 26
Full

Hourly Weather History & Observations

Time (IST) Temp. Heat Index Dew Point Humidity Pressure Visibility Wind Dir Wind Speed Gust Speed Precip Events Conditions
12:10 AM 77.0 °F - 57.2 °F 50% 29.80 in 2.5 mi West 3.5 mph - N/A   Smoke
12:40 AM 77.0 °F - 57.2 °F 50% 29.80 in 2.5 mi West 3.5 mph - N/A   Smoke
1:10 AM 77.0 °F - 57.2 °F 50% 29.80 in 2.5 mi West 3.5 mph - N/A   Smoke
1:40 AM 77.0 °F - 57.2 °F 50% 29.80 in 2.5 mi West 3.5 mph - N/A   Smoke
2:10 AM 77.0 °F - 55.4 °F 47% 29.80 in 2.5 mi WSW 3.5 mph - N/A   Smoke
2:30 AM 78 °F - 60 °F 44% 29.81 in 2 mi Calm Calm - -   Clear
2:40 AM 77.0 °F - 57.2 °F 50% 29.80 in 2.5 mi West 3.5 mph - N/A   Smoke
3:10 AM 75.2 °F - 59.0 °F 57% 29.80 in 2.5 mi West 3.5 mph - N/A   Smoke
3:40 AM 75.2 °F - 57.2 °F 53% 29.80 in 2.5 mi West 3.5 mph - N/A   Smoke
4:10 AM 75.2 °F - 60.8 °F 61% 29.80 in 2.5 mi Calm Calm - N/A   Smoke
4:40 AM 77.0 °F - 59.0 °F 54% 29.80 in 2.5 mi West 5.8 mph - N/A   Smoke
5:10 AM 77.0 °F - 60.8 °F 57% 29.80 in 2.5 mi West 5.8 mph - N/A   Smoke
5:30 AM 76 °F - 63 °F 56% 29.80 in 2 mi NW 4.6 mph - -   Haze
5:40 AM 75.2 °F - 62.6 °F 65% 29.80 in 2.5 mi WNW 4.6 mph - N/A   Smoke
6:10 AM 78.8 °F - 62.6 °F 57% 29.80 in 2.5 mi WNW 6.9 mph - N/A   Smoke
6:40 AM 77.0 °F - 62.6 °F 61% 29.83 in 2.2 mi West 5.8 mph - N/A   Haze
7:10 AM 75.2 °F - 60.8 °F 61% 29.83 in 2.2 mi West 4.6 mph - N/A   Haze
7:40 AM 77.0 °F - 60.8 °F 57% 29.83 in 2.2 mi West 4.6 mph - N/A   Haze
8:10 AM 78.8 °F - 59.0 °F 51% 29.83 in 2.2 mi NNW 6.9 mph - N/A   Smoke
8:30 AM 78 °F - 63 °F 51% 29.86 in 2 mi NW 4.6 mph - -   Haze
8:40 AM 82.4 °F 82.5 °F 59.0 °F 45% 29.86 in 2.5 mi North 9.2 mph - N/A   Smoke
9:10 AM 82.4 °F 82.5 °F 59.0 °F 45% 29.86 in 2.5 mi NNW 6.9 mph - N/A   Smoke
9:40 AM 84.2 °F 83.8 °F 59.0 °F 42% 29.86 in 2.5 mi North 6.9 mph - N/A   Smoke
10:40 AM 86.0 °F 84.9 °F 57.2 °F 37% 29.86 in 3.1 mi NNW 6.9 mph - N/A   Smoke
11:10 AM 86.0 °F 84.9 °F 57.2 °F 37% 29.86 in 3.7 mi NW 3.5 mph - N/A   Unknown
11:30 AM 87 °F - 57 °F 26% 29.87 in 2 mi NW 5.8 mph - -  
11:40 AM 86.0 °F 85.4 °F 59.0 °F 40% 29.86 in 3.7 mi NW 4.6 mph - N/A   Unknown
12:10 PM 87.8 °F 86.5 °F 57.2 °F 35% 29.86 in 3.7 mi NNW 6.9 mph - N/A   Unknown
12:40 PM 87.8 °F 86.5 °F 57.2 °F 35% 29.83 in 3.7 mi NW 5.8 mph - N/A   Unknown
1:10 PM 89.6 °F 88.1 °F 57.2 °F 33% 29.83 in 3.7 mi NNW 5.8 mph - N/A   Unknown
1:40 PM 89.6 °F 87.7 °F 55.4 °F 31% 29.83 in 3.7 mi NNW 5.8 mph - N/A   Unknown
2:10 PM 91.4 °F 89.4 °F 55.4 °F 29% 29.80 in 3.7 mi NNW 5.8 mph - N/A   Unknown
2:30 PM 92 °F - 52 °F 17% 29.80 in 2 mi WNW 6.9 mph - -  
3:10 PM 93.2 °F - 51.8 °F 24% 29.77 in 3.7 mi NNE 6.9 mph - N/A   Unknown
3:40 PM 93.2 °F - 51.8 °F 24% 29.77 in 3.7 mi NNE 6.9 mph - N/A   Unknown
4:10 PM 95.0 °F - 50.0 °F 22% 29.74 in 3.7 mi NW 6.9 mph - N/A   Unknown
4:40 PM 95.0 °F - 50.0 °F 22% 29.74 in 3.7 mi NNW 5.8 mph - N/A   Unknown
5:10 PM 96.8 °F - 48.2 °F 19% 29.74 in 3.7 mi WNW 6.9 mph - N/A   Unknown
5:30 PM 93 °F - 51 °F 15% 29.76 in 2 mi West 6.9 mph - -  
5:40 PM 95.0 °F - 50.0 °F 22% 29.74 in 3.7 mi NW 5.8 mph - N/A   Unknown
6:10 PM 95.0 °F - 50.0 °F 22% 29.74 in 3.7 mi WNW 8.1 mph - N/A   Unknown
7:10 PM 87.8 °F 85.7 °F 53.6 °F 31% 29.77 in - North - - N/A   Smoke
7:40 PM 84.2 °F 83.0 °F 55.4 °F 37% 29.77 in 2.5 mi NW 4.6 mph - N/A   Smoke
8:10 PM 84.2 °F 83.0 °F 55.4 °F 37% 29.77 in - North - - N/A   Smoke
8:30 PM 85 °F - 48 °F 18% 29.80 in 2 mi WNW 3.5 mph - -   Smoke
8:40 PM 82.4 °F 81.7 °F 55.4 °F 39% 29.80 in - North - - N/A   Smoke
9:10 PM 80.6 °F 80.5 °F 55.4 °F 42% 29.80 in - North - - N/A   Smoke
9:40 PM 80.6 °F 80.3 °F 53.6 °F 39% 29.83 in 2.5 mi NW 5.8 mph - N/A   Smoke
10:10 PM 80.6 °F 80.3 °F 53.6 °F 39% 29.83 in - North - - N/A   Smoke
10:40 PM 80.6 °F - 51.8 °F 37% 29.83 in - North - - N/A   Smoke
11:10 PM 78.8 °F - 51.8 °F 39% 29.83 in - North - - N/A   Smoke
11:30 PM 81 °F - 52 °F 26% 29.86 in 2 mi Calm Calm - -   Smoke
11:40 PM 80.6 °F - 51.8 °F 37% 29.83 in - North - - N/A   Smoke